sat.trackr.live / text

‹ back to catalog

STARLINK-5547

NORAD 55352 · 2023-013X

PAYLOAD ACTIVE UNKNOWN

§ Identity

Operator
Country
US
Launch date
2023-01-26
Launch site
AFETR
Launch vehicle
Mass (kg)
RCS (m²)

Purposes: comms

External: N2YO · Heavens-Above · Gunter

§ Orbital elements

Epoch: 2026-05-24T22:22:11.820864Z

Period
94.27 min
Inclination
43.0006°
Eccentricity
0.0001332
Mean motion
15.27571340 rev/d
Perigee alt
482.2 km
Apogee alt
484.0 km
Semi-major
6,861.2 km
B*
-2.7370e-5
RAAN
229.4270°
Arg perigee
269.5024°
Mean anomaly
90.5675°
Rev number
18,337

§ Raw data

STARLINK-55471 55352U 23013X   26144.93208126 -.00001015  00000+0 -27370-4 0  99982 55352  43.0006 229.4270 0001332 269.5024  90.5675 15.27571340183377

JSON: /api/v1/satellites/55352 · /tle

For live sub-satellite position, see the globe view (requires WebGL).

§ Visibility from observer

Set your observer location to see the next 7 days of passes ≥ 10°. The values pass through the URL so the page stays shareable.

No JS? Fill the form by hand. The geolocation button needs JavaScript.